Regional Weather Roundup
Issued by NWS

Home | Current Version | Previous Version | Text Only | Print | Product List | Glossary Off
Versions: 1 2 3 4 5 6 7 8 9 10 11 12 13 14 15 16 17 18 19 20 21 22 23 24 25 26 27 28 29 30 31 32 33 34 35 36 37 38 39 40 41 42 43 44 45 46 47 48 49 50

646
ASUS43 KDTX 161410
RWRMI
MICHIGAN HOURLY REGIONAL WEATHER ROUNDUP
NATIONAL WEATHER SERVICE DETROIT/PONTIAC MI
ISSUED BY NATIONAL WEATHER SERVICE GRAND RAPIDS MI
900 AM EST MON JAN 16 2017

NOTE: "FAIR" INDICATES FEW OR NO CLOUDS BELOW 12,000 FEET WITH NO
SIGNIFICANT WEATHER AND/OR OBSTRUCTION TO VISIBILITY.

MIZ047>049-052>055-059>063-066>070-074>076-081>083-161500-
SOUTHEAST LOWER MICHIGAN

CITY           SKY/WX    TMP DP  RH WIND       PRES   REMARKS
ADRIAN         CLOUDY    28  26  92 CALM      30.32F FOG
ALMA           CLOUDY    25  23  94 S3        30.32S FOG
ANN ARBOR      CLOUDY    27  25  92 CALM      30.33R FOG
BAD AXE        CLOUDY    23  20  90 SW6       30.32S WCI  15
DETROIT CITY   CLOUDY    24  23  96 CALM      30.36R FOG
DETROIT        CLOUDY    28  24  85 CALM      30.36R FOG
FLINT          CLOUDY    24  21  88 CALM      30.33R
GROSSE ILE     CLOUDY    29  28  95 NE3       30.34R FOG
HILLSDALE      CLOUDY    30  27  86 SE5       30.28F FOG     WCI  25
HOWELL         CLOUDY    25  22  87 SE3       30.31S FOG

CITY           SKY/WX    TMP DP  RH WIND       PRES   REMARKS
JACKSON        MIX PCPN  28  24  85 SE5       30.30S FOG     WCI  23
LANSING        CLOUDY    27  21  78 SE3       30.31F
MASON          CLOUDY    27  25  90 CALM      30.30F FOG
MONROE         CLOUDY    29  28  97 CALM      30.34R FOG
MT. CLEMENS    PTCLDY    23  22  96 CALM      30.34R
PONTIAC        CLOUDY    22  18  85 CALM      30.32R FOG
PORT HOPE        N/A     25  20  81 SW7       30.31R WCI  17
PORT HURON     CLOUDY    21  21 100 CALM      30.36R FOG
TRI CITIES     PTCLDY    24  22  91 SW3       30.32R FOG
YPSILANTI      CLOUDY    26  24  92 NE5       30.35R FOG     WCI  20
$$
MIZ043>046-050>051-056>058-064>065-071>073-077>080-161500-
SOUTHWEST LOWER MICHIGAN

CITY           SKY/WX    TMP DP  RH WIND       PRES   REMARKS
BATTLE CREEK   MIX PCPN  29  25  85 S3        30.30R FOG
BENTON HARBOR  MIX PCPN  32  28  85 E3        30.28F FOG
BIG RAPIDS     PTCLDY    15  13  89 CALM      30.28S FOG
COLDWATER      CLOUDY    32  28  86 SE5       30.29S FOG     WCI  27
HOLLAND        CLOUDY    30  23  75 S6        30.30R WCI  24
GRAND RAPIDS   CLOUDY    27  22  81 CALM      30.30R HAZE
KALAMAZOO      FRZ DRZL  31  25  78 SE3       30.30S
MARSHALL       CLOUDY    30  26  83 CALM      30.29S
MOUNT PLEASANT PTCLDY    20  19  93 CALM      30.30R FOG
MUSKEGON       CLOUDY    28  25  88 SE3       30.30R FOG
STURGIS        CLOUDY    31  27  84 E6        30.27F WCI  25
$$
MIZ016>042-161500-
NORTHERN LOWER MICHIGAN

CITY           SKY/WX    TMP DP  RH WIND       PRES   REMARKS
ALPENA         CLOUDY    22  18  85 SW3       30.26R
BEAVER ISLAND  CLOUDY    30  25  80 SW15      30.23S WCI  19
BELLAIRE       CLOUDY     9   7  92 CALM      30.28R
CADILLAC       CLOUDY    17  14  88 CALM      30.24R FOG
CHARLEVOIX     PTCLDY    20  20  99 SE3       30.27S FOG
GAYLORD        CLOUDY    22  18  85 SW7       30.22R FOG     WCI  13
HOUGHTON LAKE  CLOUDY     8   4  83 CALM      30.27R
MANISTEE       PTCLDY    17  15  92 E3        30.28S
OSCODA         CLOUDY    20  17  89 SW6       30.28S FOG     WCI  12
PELLSTON       CLOUDY    29  23  78 SW12      30.23R WCI  19
TRAVERSE CITY  CLOUDY    22  20  92 CALM      30.26S FOG
LUDINGTON      CLOUDY    24  23  99 CALM      30.27F FOG
$$
MIZ007>008-015-161500-
EASTERN UPPER MICHIGAN

CITY           SKY/WX    TMP DP  RH WIND       PRES   REMARKS
KINROSS        CLOUDY    26  23  88 SW8       30.18R WCI  18
MACKINAC ISLAN CLOUDY    29  29 100 SW13G23   30.20S WCI  19
NEWBERRY       CLOUDY    19  14  82 SW15      30.16S WCI   4
S. S. MARIE    PTCLDY    23  18  81 SW8       30.18R WCI  14
$$
MIZ004>006-011>014-085-161500-
CENTRAL UPPER MICHIGAN

CITY           SKY/WX    TMP DP  RH WIND       PRES   REMARKS
MANISTIQUE     CLOUDY    21  16  79 SW5       30.20S WCI  15
ESCANABA       CLOUDY     5   3  91 CALM      30.24R
SAWYER-GWINN   CLEAR     10   9  92 S6        30.15R WCI   1
$$
MIZ001>003-009>011-084-161500-
WESTERN UPPER MICHIGAN

CITY           SKY/WX    TMP DP  RH WIND       PRES   REMARKS
IRON MOUNTAIN  CLOUDY    14   8  77 N7        30.17R WCI   4
HOUGHTON       CLEAR     24  16  71 W13       30.10R WCI  12
COPPER HARBOR    N/A     28  24  85 NW9       30.11R WCI  19
IRONWOOD       CLOUDY    17  14  88 S6        30.16R WCI   9
$$

ABBREVIATIONS USED IN REMARKS
   TC - TEMPERATURE IN CELSIUS
  WCI - WIND CHILL INDEX
   HX - HEAT INDEX
  VSB - VISIBILITY





USA.gov is the U.S. government's official web portal to all federal, state and local government web resources and services.